Year,Month,Day,Hour,Minute,Value (Times are PST for temperature in C)
2016,12,15,00,00,-1.20
2016,12,15,00,01,-1.20
2016,12,15,00,02,-1.20
2016,12,15,00,03,-1.20
2016,12,15,00,04,-1.20
2016,12,15,00,05,-1.20
2016,12,15,00,06,-1.20
2016,12,15,00,07,-1.20
2016,12,15,00,08,-1.20
2016,12,15,00,09,-1.20
2016,12,15,00,10,-1.20
2016,12,15,00,11,-1.20
2016,12,15,00,12,-1.20
2016,12,15,00,13,-1.20
2016,12,15,00,14,-1.20
2016,12,15,00,15,-1.20
2016,12,15,00,16,-1.20
2016,12,15,00,17,-1.30
2016,12,15,00,18,-1.20
2016,12,15,00,19,-1.20
2016,12,15,00,20,-1.20
2016,12,15,00,21,-1.30
2016,12,15,00,22,-1.30
2016,12,15,00,23,-1.30
2016,12,15,00,24,-1.30
2016,12,15,00,25,-1.30
2016,12,15,00,26,-1.30
2016,12,15,00,27,-1.30
2016,12,15,00,28,-1.30
2016,12,15,00,29,-1.30
2016,12,15,00,30,-1.30
2016,12,15,00,31,-1.30
2016,12,15,00,32,-1.30
2016,12,15,00,33,-1.30
2016,12,15,00,34,-1.30
2016,12,15,00,35,-1.30
2016,12,15,00,36,-1.30
2016,12,15,00,37,-1.30
2016,12,15,00,38,-1.30
2016,12,15,00,39,-1.30
2016,12,15,00,40,-1.30
2016,12,15,00,41,-1.30
2016,12,15,00,42,-1.30
2016,12,15,00,43,-1.30
2016,12,15,00,44,-1.30
2016,12,15,00,45,-1.30
2016,12,15,00,46,-1.30
2016,12,15,00,47,-1.20
2016,12,15,00,48,-1.20
2016,12,15,00,49,-1.20
2016,12,15,00,50,-1.20
2016,12,15,00,51,-1.20
2016,12,15,00,52,-1.20
2016,12,15,00,53,-1.20
2016,12,15,00,54,-1.20
2016,12,15,00,55,-1.20
2016,12,15,00,56,-1.20
2016,12,15,00,57,-1.20
2016,12,15,00,58,-1.20
2016,12,15,00,59,-1.20
2016,12,15,01,00,-1.20
2016,12,15,01,01,-1.20
2016,12,15,01,02,-1.20
2016,12,15,01,03,-1.20
2016,12,15,01,04,-1.20
2016,12,15,01,05,-1.20
2016,12,15,01,06,-1.20
2016,12,15,01,07,-1.20
2016,12,15,01,08,-1.20
2016,12,15,01,09,-1.20
2016,12,15,01,10,-1.20
2016,12,15,01,11,-1.20
2016,12,15,01,12,-1.30
2016,12,15,01,13,-1.30
2016,12,15,01,14,-1.30
2016,12,15,01,15,-1.30
2016,12,15,01,16,-1.30
2016,12,15,01,17,-1.30
2016,12,15,01,18,-1.40
2016,12,15,01,19,-1.40
2016,12,15,01,20,-1.40
2016,12,15,01,21,-1.40
2016,12,15,01,22,-1.40
2016,12,15,01,23,-1.40
2016,12,15,01,24,-1.40
2016,12,15,01,25,-1.40
2016,12,15,01,26,-1.40
2016,12,15,01,27,-1.50
2016,12,15,01,28,-1.50
2016,12,15,01,29,-1.50
2016,12,15,01,30,-1.50
2016,12,15,01,31,-1.50
2016,12,15,01,32,-1.50
2016,12,15,01,33,-1.60
2016,12,15,01,34,-1.60
2016,12,15,01,35,-1.60
2016,12,15,01,36,-1.60
2016,12,15,01,37,-1.60
2016,12,15,01,38,-1.60
2016,12,15,01,39,-1.60
2016,12,15,01,40,-1.60
2016,12,15,01,41,-1.60
2016,12,15,01,42,-1.70
2016,12,15,01,43,-1.70
2016,12,15,01,44,-1.70
2016,12,15,01,45,-1.70
2016,12,15,01,46,-1.70
2016,12,15,01,47,-1.70
2016,12,15,01,48,-1.70
2016,12,15,01,49,-1.80
2016,12,15,01,50,-1.80
2016,12,15,01,51,-1.80
2016,12,15,01,52,-1.80
2016,12,15,01,53,-1.80
2016,12,15,01,54,-1.80
2016,12,15,01,55,-1.80
2016,12,15,01,56,-1.80
2016,12,15,01,57,-1.80
2016,12,15,01,58,-1.80
2016,12,15,01,59,-1.80
2016,12,15,02,00,-1.90
2016,12,15,02,01,-1.80
2016,12,15,02,02,-1.90
2016,12,15,02,03,-1.90
2016,12,15,02,04,-1.90
2016,12,15,02,05,-1.90
2016,12,15,02,06,-1.90
2016,12,15,02,07,-1.90
2016,12,15,02,08,-1.90
2016,12,15,02,09,-1.90
2016,12,15,02,10,-1.90
2016,12,15,02,11,-1.90
2016,12,15,02,12,-1.90
2016,12,15,02,13,-1.90
2016,12,15,02,14,-1.90
2016,12,15,02,15,-1.90
2016,12,15,02,16,-1.90
2016,12,15,02,17,-1.90
2016,12,15,02,18,-1.90
2016,12,15,02,19,-1.90
2016,12,15,02,20,-1.90
2016,12,15,02,21,-1.90
2016,12,15,02,22,-1.90
2016,12,15,02,23,-1.90
2016,12,15,02,24,-1.90
2016,12,15,02,25,-1.90
2016,12,15,02,26,-1.90
2016,12,15,02,27,-1.90
2016,12,15,02,28,-1.90
2016,12,15,02,29,-1.90
2016,12,15,02,30,-1.90
2016,12,15,02,31,-1.90
2016,12,15,02,32,-1.90
2016,12,15,02,33,-1.90
2016,12,15,02,34,-2.00
2016,12,15,02,35,-2.00
2016,12,15,02,36,-2.00
2016,12,15,02,37,-2.00
2016,12,15,02,38,-2.00
2016,12,15,02,39,-2.00
2016,12,15,02,40,-2.00
2016,12,15,02,41,-2.00
2016,12,15,02,42,-2.00
2016,12,15,02,43,-2.00
2016,12,15,02,44,-2.00
2016,12,15,02,45,-2.00
2016,12,15,02,46,-2.00
2016,12,15,02,47,-2.10
2016,12,15,02,48,-2.10
2016,12,15,02,49,-2.10
2016,12,15,02,50,-2.10
2016,12,15,02,51,-2.10
2016,12,15,02,52,-2.10
2016,12,15,02,53,-2.10
2016,12,15,02,54,-2.20
2016,12,15,02,55,-2.20
2016,12,15,02,56,-2.20
2016,12,15,02,57,-2.20
2016,12,15,02,58,-2.20
2016,12,15,02,59,-2.20
2016,12,15,03,00,-2.20
2016,12,15,03,01,-2.20
2016,12,15,03,02,-2.20
2016,12,15,03,03,-2.20
2016,12,15,03,04,-2.20
2016,12,15,03,05,-2.20
2016,12,15,03,06,-2.20
2016,12,15,03,07,-2.20
2016,12,15,03,08,-2.30
2016,12,15,03,09,-2.30
2016,12,15,03,10,-2.30
2016,12,15,03,11,-2.30
2016,12,15,03,12,-2.30
2016,12,15,03,13,-2.30
2016,12,15,03,14,-2.30
2016,12,15,03,15,-2.30
2016,12,15,03,16,-2.30
2016,12,15,03,17,-2.30
2016,12,15,03,18,-2.30
2016,12,15,03,19,-2.30
2016,12,15,03,20,-2.30
2016,12,15,03,21,-2.40
2016,12,15,03,22,-2.30
2016,12,15,03,23,-2.30
2016,12,15,03,24,-2.30
2016,12,15,03,25,-2.30
2016,12,15,03,26,-2.30
2016,12,15,03,27,-2.30
2016,12,15,03,28,-2.30
2016,12,15,03,29,-2.30
2016,12,15,03,30,-2.30
2016,12,15,03,31,-2.30
2016,12,15,03,32,-2.30
2016,12,15,03,33,-2.30
2016,12,15,03,34,-2.30
2016,12,15,03,35,-2.30
2016,12,15,03,36,-2.30
2016,12,15,03,37,-2.40
2016,12,15,03,38,-2.40
2016,12,15,03,39,-2.40
2016,12,15,03,40,-2.40
2016,12,15,03,41,-2.40
2016,12,15,03,42,-2.40
2016,12,15,03,43,-2.40
2016,12,15,03,44,-2.40
2016,12,15,03,45,-2.40
2016,12,15,03,46,-2.40
2016,12,15,03,47,-2.40
2016,12,15,03,48,-2.40
2016,12,15,03,49,-2.40
2016,12,15,03,50,-2.40
2016,12,15,03,51,-2.40
2016,12,15,03,52,-2.30
2016,12,15,03,53,-2.40
2016,12,15,03,54,-2.30
2016,12,15,03,55,-2.30
2016,12,15,03,56,-2.30
2016,12,15,03,57,-2.30
2016,12,15,03,58,-2.30
2016,12,15,03,59,-2.30
2016,12,15,04,00,-2.30
2016,12,15,04,01,-2.30
2016,12,15,04,02,-2.30
2016,12,15,04,03,-2.30
2016,12,15,04,04,-2.30
2016,12,15,04,05,-2.40
2016,12,15,04,06,-2.40
2016,12,15,04,07,-2.40
2016,12,15,04,08,-2.40
2016,12,15,04,09,-2.40
2016,12,15,04,10,-2.30
2016,12,15,04,11,-2.30
2016,12,15,04,12,-2.30
2016,12,15,04,13,-2.30
2016,12,15,04,14,-2.30
2016,12,15,04,15,-2.40
2016,12,15,04,16,-2.40
2016,12,15,04,17,-2.40
2016,12,15,04,18,-2.40
2016,12,15,04,19,-2.40
2016,12,15,04,20,-2.40
2016,12,15,04,21,-2.40
2016,12,15,04,22,-2.40
2016,12,15,04,23,-2.40
2016,12,15,04,24,-2.40
2016,12,15,04,25,-2.40
2016,12,15,04,26,-2.40
2016,12,15,04,27,-2.40
2016,12,15,04,28,-2.40
2016,12,15,04,29,-2.40
2016,12,15,04,30,-2.40
2016,12,15,04,31,-2.40
2016,12,15,04,32,-2.40
2016,12,15,04,33,-2.40
2016,12,15,04,34,-2.40
2016,12,15,04,35,-2.40
2016,12,15,04,36,-2.40
2016,12,15,04,37,-2.40
2016,12,15,04,38,-2.40
2016,12,15,04,39,-2.40
2016,12,15,04,40,-2.40
2016,12,15,04,41,-2.40
2016,12,15,04,42,-2.40
2016,12,15,04,43,-2.40
2016,12,15,04,44,-2.40
2016,12,15,04,45,-2.40
2016,12,15,04,46,-2.40
2016,12,15,04,47,-2.40
2016,12,15,04,48,-2.40
2016,12,15,04,49,-2.40
2016,12,15,04,50,-2.40
2016,12,15,04,51,-2.40
2016,12,15,04,52,-2.40
2016,12,15,04,53,-2.40
2016,12,15,04,54,-2.40
2016,12,15,04,55,-2.40
2016,12,15,04,56,-2.40
2016,12,15,04,57,-2.40
2016,12,15,04,58,-2.40
2016,12,15,04,59,-2.40
2016,12,15,05,00,-2.40
2016,12,15,05,01,-2.40
2016,12,15,05,02,-2.40
2016,12,15,05,03,-2.40
2016,12,15,05,04,-2.40
2016,12,15,05,05,-2.40
2016,12,15,05,06,-2.40
2016,12,15,05,07,-2.40
2016,12,15,05,08,-2.40
2016,12,15,05,09,-2.40
2016,12,15,05,10,-2.40
2016,12,15,05,11,-2.50
2016,12,15,05,12,-2.50
2016,12,15,05,13,-2.50
2016,12,15,05,14,-2.50
2016,12,15,05,15,-2.50
2016,12,15,05,16,-2.50
2016,12,15,05,17,-2.50
2016,12,15,05,18,-2.60
2016,12,15,05,19,-2.60
2016,12,15,05,20,-2.60
2016,12,15,05,21,-2.60
2016,12,15,05,22,-2.60
2016,12,15,05,23,-2.60
2016,12,15,05,24,-2.60
2016,12,15,05,25,-2.60
2016,12,15,05,26,-2.60
2016,12,15,05,27,-2.60
2016,12,15,05,28,-2.60
2016,12,15,05,29,-2.60
2016,12,15,05,30,-2.60
2016,12,15,05,31,-2.60
2016,12,15,05,32,-2.60
2016,12,15,05,33,-2.60
2016,12,15,05,34,-2.60
2016,12,15,05,35,-2.50
2016,12,15,05,36,-2.50
2016,12,15,05,37,-2.50
2016,12,15,05,38,-2.50
2016,12,15,05,39,-2.50
2016,12,15,05,40,-2.50
2016,12,15,05,41,-2.50
2016,12,15,05,42,-2.50
2016,12,15,05,43,-2.50
2016,12,15,05,44,-2.50
2016,12,15,05,45,-2.50
2016,12,15,05,46,-2.50
2016,12,15,05,47,-2.50
2016,12,15,05,48,-2.40
2016,12,15,05,49,-2.40
2016,12,15,05,50,-2.40
2016,12,15,05,51,-2.40
2016,12,15,05,52,-2.40
2016,12,15,05,53,-2.40
2016,12,15,05,54,-2.40
2016,12,15,05,55,-2.40
2016,12,15,05,56,-2.40
2016,12,15,05,57,-2.40
2016,12,15,05,58,-2.40
2016,12,15,05,59,-2.40
2016,12,15,06,00,-2.50
2016,12,15,06,01,-2.50
2016,12,15,06,02,-2.50
2016,12,15,06,03,-2.50
2016,12,15,06,04,-2.50
2016,12,15,06,05,-2.50
2016,12,15,06,06,-2.50
2016,12,15,06,07,-2.50
2016,12,15,06,08,-2.50
2016,12,15,06,09,-2.50
2016,12,15,06,10,-2.50
2016,12,15,06,11,-2.50
2016,12,15,06,12,-2.50
2016,12,15,06,13,-2.50
2016,12,15,06,14,-2.50
2016,12,15,06,15,-2.50
2016,12,15,06,16,-2.50
2016,12,15,06,17,-2.50
2016,12,15,06,18,-2.50
2016,12,15,06,19,-2.50
2016,12,15,06,20,-2.50
2016,12,15,06,21,-2.50
2016,12,15,06,22,-2.50
2016,12,15,06,23,-2.50
2016,12,15,06,24,-2.50
2016,12,15,06,25,-2.50
2016,12,15,06,26,-2.60
2016,12,15,06,27,-2.60
2016,12,15,06,28,-2.60
2016,12,15,06,29,-2.60
2016,12,15,06,30,-2.60
2016,12,15,06,31,-2.60
2016,12,15,06,32,-2.60
2016,12,15,06,33,-2.60
2016,12,15,06,34,-2.60
2016,12,15,06,35,-2.60
2016,12,15,06,36,-2.60
2016,12,15,06,37,-2.60
2016,12,15,06,38,-2.60
2016,12,15,06,39,-2.60
2016,12,15,06,40,-2.60
2016,12,15,06,41,-2.60
2016,12,15,06,42,-2.60
2016,12,15,06,43,-2.60
2016,12,15,06,44,-2.60
2016,12,15,06,45,-2.60
2016,12,15,06,46,-2.60
2016,12,15,06,47,-2.60
2016,12,15,06,48,-2.60
2016,12,15,06,49,-2.60
2016,12,15,06,50,-2.60
2016,12,15,06,51,-2.60
2016,12,15,06,52,-2.60
2016,12,15,06,53,-2.60
2016,12,15,06,54,-2.60
2016,12,15,06,55,-2.60
2016,12,15,06,56,-2.60
2016,12,15,06,57,-2.60
2016,12,15,06,58,-2.60
2016,12,15,06,59,-2.60
2016,12,15,07,00,-2.60
2016,12,15,07,01,-2.60
2016,12,15,07,02,-2.60
2016,12,15,07,03,-2.60
2016,12,15,07,04,-2.60
2016,12,15,07,05,-2.60
2016,12,15,07,06,-2.60
2016,12,15,07,07,-2.60
2016,12,15,07,08,-2.60
2016,12,15,07,09,-2.60
2016,12,15,07,10,-2.60
2016,12,15,07,11,-2.60
2016,12,15,07,12,-2.60
2016,12,15,07,13,-2.60
2016,12,15,07,14,-2.60
2016,12,15,07,15,-2.60
2016,12,15,07,16,-2.60
2016,12,15,07,17,-2.60
2016,12,15,07,18,-2.60
2016,12,15,07,19,-2.60
2016,12,15,07,20,-2.70
2016,12,15,07,21,-2.70
2016,12,15,07,22,-2.70
2016,12,15,07,23,-2.70
2016,12,15,07,24,-2.70
2016,12,15,07,25,-2.70
2016,12,15,07,26,-2.70
2016,12,15,07,27,-2.70
2016,12,15,07,28,-2.70
2016,12,15,07,29,-2.70
2016,12,15,07,30,-2.70
2016,12,15,07,31,-2.70
2016,12,15,07,32,-2.70
2016,12,15,07,33,-2.70
2016,12,15,07,34,-2.70
2016,12,15,07,35,-2.70
2016,12,15,07,36,-2.70
2016,12,15,07,37,-2.70
2016,12,15,07,38,-2.70
2016,12,15,07,39,-2.70
2016,12,15,07,40,-2.70
2016,12,15,07,41,-2.70
2016,12,15,07,42,-2.70
2016,12,15,07,43,-2.70
2016,12,15,07,44,-2.70
2016,12,15,07,45,-2.70
2016,12,15,07,46,-2.70
2016,12,15,07,47,-2.70
2016,12,15,07,48,-2.70
2016,12,15,07,49,-2.70
2016,12,15,07,50,-2.70
2016,12,15,07,51,-2.70
2016,12,15,07,52,-2.70
2016,12,15,07,53,-2.70
2016,12,15,07,54,-2.70
2016,12,15,07,55,-2.70
2016,12,15,07,56,-2.70
2016,12,15,07,57,-2.60
2016,12,15,07,58,-2.60
2016,12,15,07,59,-2.60
2016,12,15,08,00,-2.60
2016,12,15,08,01,-2.60
2016,12,15,08,02,-2.60
2016,12,15,08,03,-2.60
2016,12,15,08,04,-2.60
2016,12,15,08,05,-2.60
2016,12,15,08,06,-2.60
2016,12,15,08,07,-2.60
2016,12,15,08,08,-2.60
2016,12,15,08,09,-2.60
2016,12,15,08,10,-2.60
2016,12,15,08,11,-2.60
2016,12,15,08,12,-2.60
2016,12,15,08,13,-2.60
2016,12,15,08,14,-2.60
2016,12,15,08,15,-2.60
2016,12,15,08,16,-2.60
2016,12,15,08,17,-2.60
2016,12,15,08,18,-2.60
2016,12,15,08,19,-2.60
2016,12,15,08,20,-2.60
2016,12,15,08,21,-2.60
2016,12,15,08,22,-2.60
2016,12,15,08,23,-2.60
2016,12,15,08,24,-2.60
2016,12,15,08,25,-2.50
2016,12,15,08,26,-2.50
2016,12,15,08,27,-2.50
2016,12,15,08,28,-2.50
2016,12,15,08,29,-2.50
2016,12,15,08,30,-2.50
2016,12,15,08,31,-2.50
2016,12,15,08,32,-2.50
2016,12,15,08,33,-2.40
2016,12,15,08,34,-2.40
2016,12,15,08,35,-2.40
2016,12,15,08,36,-2.40
2016,12,15,08,37,-2.40
2016,12,15,08,38,-2.40
2016,12,15,08,39,-2.40
2016,12,15,08,40,-2.40
2016,12,15,08,41,-2.40
2016,12,15,08,42,-2.40
2016,12,15,08,43,-2.40
2016,12,15,08,44,-2.40
2016,12,15,08,45,-2.30
2016,12,15,08,46,-2.30
2016,12,15,08,47,-2.30
2016,12,15,08,48,-2.30
2016,12,15,08,49,-2.30
2016,12,15,08,50,-2.30
2016,12,15,08,51,-2.30
2016,12,15,08,52,-2.30
2016,12,15,08,53,-2.20
2016,12,15,08,54,-2.20
2016,12,15,08,55,-2.20
2016,12,15,08,56,-2.20
2016,12,15,08,57,-2.20
2016,12,15,08,58,-2.20
2016,12,15,08,59,-2.20
2016,12,15,09,00,-2.10
2016,12,15,09,01,-2.10
2016,12,15,09,02,-2.10
2016,12,15,09,03,-2.10
2016,12,15,09,04,-2.10
2016,12,15,09,05,-2.10
2016,12,15,09,06,-2.10
2016,12,15,09,07,-2.10
2016,12,15,09,08,-2.00
2016,12,15,09,09,-2.00
2016,12,15,09,10,-2.10
2016,12,15,09,11,-2.00
2016,12,15,09,12,-2.00
2016,12,15,09,13,-2.00
2016,12,15,09,14,-2.00
2016,12,15,09,15,-1.90
2016,12,15,09,16,-1.90
2016,12,15,09,17,-1.90
2016,12,15,09,18,-1.90
2016,12,15,09,19,-1.90
2016,12,15,09,20,-1.80
2016,12,15,09,21,-1.80
2016,12,15,09,22,-1.80
2016,12,15,09,23,-1.70
2016,12,15,09,24,-1.70
2016,12,15,09,25,-1.70
2016,12,15,09,26,-1.70
2016,12,15,09,27,-1.70
2016,12,15,09,28,-1.70
2016,12,15,09,29,-1.70
2016,12,15,09,30,-1.60
2016,12,15,09,31,-1.60
2016,12,15,09,32,-1.60
2016,12,15,09,33,-1.60
2016,12,15,09,34,-1.60
2016,12,15,09,35,-1.60
2016,12,15,09,36,-1.60
2016,12,15,09,37,-1.60
2016,12,15,09,38,-1.60
2016,12,15,09,39,-1.60
2016,12,15,09,40,-1.60
2016,12,15,09,41,-1.60
2016,12,15,09,42,-1.60
2016,12,15,09,43,-1.50
2016,12,15,09,44,-1.50
2016,12,15,09,45,-1.50
2016,12,15,09,46,-1.40
2016,12,15,09,47,-1.40
2016,12,15,09,48,-1.40
2016,12,15,09,49,-1.30
2016,12,15,09,50,-1.30
2016,12,15,09,51,-1.20
2016,12,15,09,52,-1.20
2016,12,15,09,53,-1.20
2016,12,15,09,54,-1.20
2016,12,15,09,55,-1.10
2016,12,15,09,56,-1.10
2016,12,15,09,57,-1.10
2016,12,15,09,58,-1.00
2016,12,15,09,59,-1.00
2016,12,15,10,00,-0.90
2016,12,15,10,01,-0.90
2016,12,15,10,02,-0.90
2016,12,15,10,03,-0.90
2016,12,15,10,04,-0.80
2016,12,15,10,05,-0.80
2016,12,15,10,06,-0.80
2016,12,15,10,07,-0.80
2016,12,15,10,08,-0.80
2016,12,15,10,09,-0.70
2016,12,15,10,10,-0.70
2016,12,15,10,11,-0.70
2016,12,15,10,12,-0.70
2016,12,15,10,13,-0.70
2016,12,15,10,14,-0.60
2016,12,15,10,15,-0.60
2016,12,15,10,16,-0.60
2016,12,15,10,17,-0.60
2016,12,15,10,18,-0.60
2016,12,15,10,19,-0.60
2016,12,15,10,20,-0.60
2016,12,15,10,21,-0.60
2016,12,15,10,22,-0.60
2016,12,15,10,23,-0.60
2016,12,15,10,24,-0.60
2016,12,15,10,25,-0.60
2016,12,15,10,26,-0.60
2016,12,15,10,27,-0.60
2016,12,15,10,28,-0.60
2016,12,15,10,29,-0.60
2016,12,15,10,30,-0.60
2016,12,15,10,31,-0.60
2016,12,15,10,32,-0.60
2016,12,15,10,33,-0.60
2016,12,15,10,34,-0.60
2016,12,15,10,35,-0.70
2016,12,15,10,36,-0.70
2016,12,15,10,37,-0.70
2016,12,15,10,38,-0.70
2016,12,15,10,39,-0.70
2016,12,15,10,40,-0.70
2016,12,15,10,41,-0.70
2016,12,15,10,42,-0.70
2016,12,15,10,43,-0.70
2016,12,15,10,44,-0.60
2016,12,15,10,45,-0.60
2016,12,15,10,46,-0.60
2016,12,15,10,47,-0.60
2016,12,15,10,48,-0.60
2016,12,15,10,49,-0.50
2016,12,15,10,50,-0.50
2016,12,15,10,51,-0.50
2016,12,15,10,52,-0.50
2016,12,15,10,53,-0.50
2016,12,15,10,54,-0.40
2016,12,15,10,55,-0.40
2016,12,15,10,56,-0.40
2016,12,15,10,57,-0.40
2016,12,15,10,58,-0.40
2016,12,15,10,59,-0.40
2016,12,15,11,00,-0.30
2016,12,15,11,01,-0.30
2016,12,15,11,02,-0.30
2016,12,15,11,03,-0.20
2016,12,15,11,04,-0.20
2016,12,15,11,05,-0.10
2016,12,15,11,06,-0.10
2016,12,15,11,07,-0.10
2016,12,15,11,08,0.00
2016,12,15,11,09,0.10
2016,12,15,11,10,0.10
2016,12,15,11,11,0.20
2016,12,15,11,12,0.20
2016,12,15,11,13,0.30
2016,12,15,11,14,0.30
2016,12,15,11,15,0.40
2016,12,15,11,16,0.40
2016,12,15,11,17,0.40
2016,12,15,11,18,0.40
2016,12,15,11,19,0.50
2016,12,15,11,20,0.50
2016,12,15,11,21,0.50
2016,12,15,11,22,0.50
2016,12,15,11,23,0.50
2016,12,15,11,24,0.50
2016,12,15,11,25,0.50
2016,12,15,11,26,0.50
2016,12,15,11,27,0.50
2016,12,15,11,28,0.50
2016,12,15,11,29,0.50
2016,12,15,11,30,0.50
2016,12,15,11,31,0.50
2016,12,15,11,32,0.50
2016,12,15,11,33,0.50
2016,12,15,11,34,0.50
2016,12,15,11,35,0.50
2016,12,15,11,36,0.50
2016,12,15,11,37,0.50
2016,12,15,11,38,0.50
2016,12,15,11,39,0.50
2016,12,15,11,40,0.50
2016,12,15,11,41,0.50
2016,12,15,11,42,0.50
2016,12,15,11,43,0.50
2016,12,15,11,44,0.60
2016,12,15,11,45,0.60
2016,12,15,11,46,0.60
2016,12,15,11,47,0.60
2016,12,15,11,48,0.60
2016,12,15,11,49,0.60
2016,12,15,11,50,0.60
2016,12,15,11,51,0.60
2016,12,15,11,52,0.70
2016,12,15,11,53,0.70
2016,12,15,11,54,0.70
2016,12,15,11,55,0.70
2016,12,15,11,56,0.70
2016,12,15,11,57,0.70
2016,12,15,11,58,0.70
2016,12,15,11,59,0.70
2016,12,15,12,00,0.70
2016,12,15,12,01,0.80
2016,12,15,12,02,0.80
2016,12,15,12,03,0.70
2016,12,15,12,04,0.70
2016,12,15,12,05,0.80
2016,12,15,12,06,0.80
2016,12,15,12,07,0.80
2016,12,15,12,08,0.80
2016,12,15,12,09,0.70
2016,12,15,12,10,0.70
2016,12,15,12,11,0.80
2016,12,15,12,12,0.80
2016,12,15,12,13,0.70
2016,12,15,12,14,0.70
2016,12,15,12,15,0.80
2016,12,15,12,16,0.80
2016,12,15,12,17,0.80
2016,12,15,12,18,0.80
2016,12,15,12,19,0.80
2016,12,15,12,20,0.80
2016,12,15,12,21,0.80
2016,12,15,12,22,0.80
2016,12,15,12,23,0.80
2016,12,15,12,24,0.80
2016,12,15,12,25,0.80
2016,12,15,12,26,0.80
2016,12,15,12,27,0.80
2016,12,15,12,28,0.80
2016,12,15,12,29,0.80
2016,12,15,12,30,0.80
2016,12,15,12,31,0.80
2016,12,15,12,32,0.80
2016,12,15,12,33,0.80
2016,12,15,12,34,0.80
2016,12,15,12,35,0.80
2016,12,15,12,36,0.90
2016,12,15,12,37,0.80
2016,12,15,12,38,0.80
2016,12,15,12,39,0.80
2016,12,15,12,40,0.80
2016,12,15,12,41,0.80
2016,12,15,12,42,0.80
2016,12,15,12,43,0.80
2016,12,15,12,44,0.80
2016,12,15,12,45,0.80
2016,12,15,12,46,0.80
2016,12,15,12,47,0.80
2016,12,15,12,48,0.90
2016,12,15,12,49,0.90
2016,12,15,12,50,0.90
2016,12,15,12,51,0.90
2016,12,15,12,52,0.90
2016,12,15,12,53,0.90
2016,12,15,12,54,0.90
2016,12,15,12,55,0.90
2016,12,15,12,56,0.90
2016,12,15,12,57,0.90
2016,12,15,12,58,0.90
2016,12,15,12,59,0.90
2016,12,15,13,00,0.90
2016,12,15,13,01,0.90
2016,12,15,13,02,0.90
2016,12,15,13,03,0.90
2016,12,15,13,04,0.90
2016,12,15,13,05,0.90
2016,12,15,13,06,0.90
2016,12,15,13,07,0.90
2016,12,15,13,08,0.90
2016,12,15,13,09,0.90
2016,12,15,13,10,0.90
2016,12,15,13,11,0.90
2016,12,15,13,12,0.90
2016,12,15,13,13,0.90
2016,12,15,13,14,0.90
2016,12,15,13,15,0.90
2016,12,15,13,16,0.90
2016,12,15,13,17,0.90
2016,12,15,13,18,0.90
2016,12,15,13,19,0.90
2016,12,15,13,20,0.90
2016,12,15,13,21,0.90
2016,12,15,13,22,0.90
2016,12,15,13,23,0.90
2016,12,15,13,24,0.90
2016,12,15,13,25,0.90
2016,12,15,13,26,0.90
2016,12,15,13,27,0.90
2016,12,15,13,28,0.90
2016,12,15,13,29,0.90
2016,12,15,13,30,0.90
2016,12,15,13,31,0.90
2016,12,15,13,32,0.90
2016,12,15,13,33,0.90
2016,12,15,13,34,0.90
2016,12,15,13,35,0.90
2016,12,15,13,36,0.90
2016,12,15,13,37,0.90
2016,12,15,13,38,1.00
2016,12,15,13,39,1.00
2016,12,15,13,40,1.00
2016,12,15,13,41,1.00
2016,12,15,13,42,0.90
2016,12,15,13,43,0.90
2016,12,15,13,44,0.90
2016,12,15,13,45,0.90
2016,12,15,13,46,1.00
2016,12,15,13,47,0.90
2016,12,15,13,48,1.00
2016,12,15,13,49,1.00
2016,12,15,13,50,1.00
2016,12,15,13,51,1.00
2016,12,15,13,52,1.00
2016,12,15,13,53,1.00
2016,12,15,13,54,1.00
2016,12,15,13,55,1.00
2016,12,15,13,56,1.00
2016,12,15,13,57,1.00
2016,12,15,13,58,0.90
2016,12,15,13,59,0.90
2016,12,15,14,00,0.90
2016,12,15,14,01,0.90
2016,12,15,14,02,0.90
2016,12,15,14,03,0.90
2016,12,15,14,04,0.90
2016,12,15,14,05,0.90
2016,12,15,14,06,0.90
2016,12,15,14,07,0.90
2016,12,15,14,08,0.90
2016,12,15,14,09,0.90
2016,12,15,14,10,0.90
2016,12,15,14,11,0.90
2016,12,15,14,12,0.90
2016,12,15,14,13,0.90
2016,12,15,14,14,0.90
2016,12,15,14,15,0.90
2016,12,15,14,16,0.90
2016,12,15,14,17,0.90
2016,12,15,14,18,0.90
2016,12,15,14,19,0.90
2016,12,15,14,20,0.90
2016,12,15,14,21,0.90
2016,12,15,14,22,0.90
2016,12,15,14,23,0.90
2016,12,15,14,24,0.90
2016,12,15,14,25,0.90
2016,12,15,14,26,0.90
2016,12,15,14,27,0.90
2016,12,15,14,28,0.90
2016,12,15,14,29,0.90
2016,12,15,14,30,0.90
2016,12,15,14,31,0.90
2016,12,15,14,32,0.90
2016,12,15,14,33,0.90
2016,12,15,14,34,0.90
2016,12,15,14,35,0.90
2016,12,15,14,36,0.90
2016,12,15,14,37,0.90
2016,12,15,14,38,0.90
2016,12,15,14,39,0.90
2016,12,15,14,40,0.90
2016,12,15,14,41,0.90
2016,12,15,14,42,0.90
2016,12,15,14,43,0.90
2016,12,15,14,44,0.90
2016,12,15,14,45,0.90
2016,12,15,14,46,0.90
2016,12,15,14,47,0.90
2016,12,15,14,48,0.90
2016,12,15,14,49,0.90
2016,12,15,14,50,0.90
2016,12,15,14,51,0.90
2016,12,15,14,52,0.90
2016,12,15,14,53,0.90
2016,12,15,14,54,0.90
2016,12,15,14,55,0.90
2016,12,15,14,56,0.90
2016,12,15,14,57,0.90
2016,12,15,14,58,0.80
2016,12,15,14,59,0.80
2016,12,15,15,00,0.80
2016,12,15,15,01,0.80
2016,12,15,15,02,0.80
2016,12,15,15,03,0.80
2016,12,15,15,04,0.80
2016,12,15,15,05,0.80
2016,12,15,15,06,0.80
2016,12,15,15,07,0.80
2016,12,15,15,08,0.80
2016,12,15,15,09,0.80
2016,12,15,15,10,0.70
2016,12,15,15,11,0.70
2016,12,15,15,12,0.70
2016,12,15,15,13,0.70
2016,12,15,15,14,0.70
2016,12,15,15,15,0.70
2016,12,15,15,16,0.70
2016,12,15,15,17,0.70
2016,12,15,15,18,0.70
2016,12,15,15,19,0.70
2016,12,15,15,20,0.70
2016,12,15,15,21,0.70
2016,12,15,15,22,0.60
2016,12,15,15,23,0.60
2016,12,15,15,24,0.60
2016,12,15,15,25,0.60
2016,12,15,15,26,0.60
2016,12,15,15,27,0.60
2016,12,15,15,28,0.60
2016,12,15,15,29,0.60
2016,12,15,15,30,0.60
2016,12,15,15,31,0.50
2016,12,15,15,32,0.50
2016,12,15,15,33,0.50
2016,12,15,15,34,0.50
2016,12,15,15,35,0.40
2016,12,15,15,36,0.40
2016,12,15,15,37,0.40
2016,12,15,15,38,0.40
2016,12,15,15,39,0.40
2016,12,15,15,40,0.40
2016,12,15,15,41,0.40
2016,12,15,15,42,0.40
2016,12,15,15,43,0.30
2016,12,15,15,44,0.30
2016,12,15,15,45,0.30
2016,12,15,15,46,0.30
2016,12,15,15,47,0.30
2016,12,15,15,48,0.30
2016,12,15,15,49,0.20
2016,12,15,15,50,0.20
2016,12,15,15,51,0.20
2016,12,15,15,52,0.10
2016,12,15,15,53,0.10
2016,12,15,15,54,0.10
2016,12,15,15,55,0.10
2016,12,15,15,56,0.00
2016,12,15,15,57,0.00
2016,12,15,15,58,-0.10
2016,12,15,15,59,-0.10
2016,12,15,16,00,-0.20
2016,12,15,16,01,-0.20
2016,12,15,16,02,-0.20
2016,12,15,16,03,-0.20
2016,12,15,16,04,-0.30
2016,12,15,16,05,-0.30
2016,12,15,16,06,-0.30
2016,12,15,16,07,-0.30
2016,12,15,16,08,-0.40
2016,12,15,16,09,-0.40
2016,12,15,16,10,-0.40
2016,12,15,16,11,-0.40
2016,12,15,16,12,-0.50
2016,12,15,16,13,-0.50
2016,12,15,16,14,-0.60
2016,12,15,16,15,-0.60
2016,12,15,16,16,-0.60
2016,12,15,16,17,-0.70
2016,12,15,16,18,-0.70
2016,12,15,16,19,-0.70
2016,12,15,16,20,-0.70
2016,12,15,16,21,-0.70
2016,12,15,16,22,-0.80
2016,12,15,16,23,-0.80
2016,12,15,16,24,-0.80
2016,12,15,16,25,-0.80
2016,12,15,16,26,-0.90
2016,12,15,16,27,-0.90
2016,12,15,16,28,-0.90
2016,12,15,16,29,-0.90
2016,12,15,16,30,-1.00
2016,12,15,16,31,-1.00
2016,12,15,16,32,-1.00
2016,12,15,16,33,-1.00
2016,12,15,16,34,-1.10
2016,12,15,16,35,-1.10
2016,12,15,16,36,-1.10
2016,12,15,16,37,-1.10
2016,12,15,16,38,-1.10
2016,12,15,16,39,-1.10
2016,12,15,16,40,-1.20
2016,12,15,16,41,-1.20
2016,12,15,16,42,-1.20
2016,12,15,16,43,-1.20
2016,12,15,16,44,-1.20
2016,12,15,16,45,-1.30
2016,12,15,16,46,-1.30
2016,12,15,16,47,-1.30
2016,12,15,16,48,-1.30
2016,12,15,16,49,-1.30
2016,12,15,16,50,-1.30
2016,12,15,16,51,-1.30
2016,12,15,16,52,-1.30
2016,12,15,16,53,-1.30
2016,12,15,16,54,-1.40
2016,12,15,16,55,-1.40
2016,12,15,16,56,-1.40
2016,12,15,16,57,-1.40
2016,12,15,16,58,-1.40
2016,12,15,16,59,-1.40
2016,12,15,17,00,-1.40
2016,12,15,17,01,-1.40
2016,12,15,17,02,-1.40
2016,12,15,17,03,-1.40
2016,12,15,17,04,-1.40
2016,12,15,17,05,-1.40
2016,12,15,17,06,-1.40
2016,12,15,17,07,-1.40
2016,12,15,17,08,-1.40
2016,12,15,17,09,-1.40
2016,12,15,17,10,-1.40
2016,12,15,17,11,-1.40
2016,12,15,17,12,-1.40
2016,12,15,17,13,-1.40
2016,12,15,17,14,-1.40
2016,12,15,17,15,-1.40
2016,12,15,17,16,-1.40
2016,12,15,17,17,-1.40
2016,12,15,17,18,-1.40
2016,12,15,17,19,-1.40
2016,12,15,17,20,-1.40
2016,12,15,17,21,-1.40
2016,12,15,17,22,-1.40
2016,12,15,17,23,-1.40
2016,12,15,17,24,-1.40
2016,12,15,17,25,-1.40
2016,12,15,17,26,-1.40
2016,12,15,17,27,-1.40
2016,12,15,17,28,-1.30
2016,12,15,17,29,-1.30
2016,12,15,17,30,-1.30
2016,12,15,17,31,-1.30
2016,12,15,17,32,-1.30